Location: ?
(35.4554°N, 139.3092°E)
Time: 22:32:33
(UTC+00:00)

NOSS 3-1 (C) - Pass Details

Date: 21 April 2021
Orbit: 732 x 1476 km, 63.4° (Epoch: 18 April)

Event Time Altitude Azimuth Distance (km) Brightness Sun altitude
Rises 12:57:54 0° 331° (NNW) 4,025 7.7 -36.6°
Reaches altitude 10° 13:00:31 10° 335° (NNW) 3,160 6.9 -36.8°
Enters shadow 13:07:18 58° 27° (NNE) 1,528 4.4 -37.5°
